FJI890 NFFN-KDFW

Flight info

Callsign FJI890
Flight time N/A
Altitude 35000
Route PANDO B577 PARZO DCT KETUS DCT 10S170W 07S165W DCT PASSA/N0491F370 DCT 01S157W 03N151W 08N145W 12N140W/N0481F390 DCT BORIC DCT 19N128W 22N120W 24N115W DCT LTO/N0477F410 UJ2 CUU DCT AMUKI DCT MRTHN DCT DOGEY DCT JCT DCT GUTZZ SOCKK4
Aircraft A359/H-SDE2E3GHIJ3J4J5LM1ORWXY/LB1D1

Departure

Time 2026-05-07 15:10
Airport Nadi International Airport (NFFN)

Arrival

Time N/A
Airport Dallas Fort Worth International Airport (KDFW)
Time Latitude Longitude Altitude Speed Heading
2026-05-07 14:41 -17.75253 177.44986 53 ft 0 kts 104°
2026-05-07 15:01 -17.75252 177.44980 53 ft 4 kts 104°
2026-05-07 15:01 -17.75246 177.44957 50 ft 4 kts 98°
2026-05-07 15:01 -17.75249 177.44932 47 ft 4 kts 48°
2026-05-07 15:01 -17.75271 177.44918 47 ft 4 kts 15°
2026-05-07 15:02 -17.75284 177.44914 47 ft 4 kts 14°
2026-05-07 15:04 -17.75273 177.44917 47 ft 4 kts 14°
2026-05-07 15:05 -17.75227 177.44930 49 ft 10 kts 14°
2026-05-07 15:05 -17.75137 177.44953 51 ft 16 kts 14°
2026-05-07 15:05 -17.75057 177.44955 50 ft 9 kts 327°
2026-05-07 15:05 -17.75033 177.44888 49 ft 11 kts 281°
2026-05-07 15:06 -17.75017 177.44806 48 ft 5 kts 281°
2026-05-07 15:06 -17.75009 177.44755 49 ft 9 kts 273°
2026-05-07 15:06 -17.75042 177.44701 48 ft 10 kts 218°
2026-05-07 15:06 -17.75060 177.44687 50 ft 0 kts 217°
2026-05-07 15:08 -17.75063 177.44685 51 ft 4 kts 217°
2026-05-07 15:08 -17.75065 177.44684 51 ft 5 kts 217°
2026-05-07 15:08 -17.75087 177.44666 46 ft 14 kts 217°
2026-05-07 15:09 -17.75179 177.44593 47 ft 49 kts 217°
2026-05-07 15:09 -17.75390 177.44424 47 ft 86 kts 218°
2026-05-07 15:09 -17.75697 177.44177 49 ft 119 kts 217°
2026-05-07 15:09 -17.76104 177.43848 46 ft 149 kts 217°
2026-05-07 15:10 -17.76566 177.43469 137 ft 165 kts 217°
2026-05-07 15:10 -17.76973 177.43119 492 ft 160 kts 218°
2026-05-07 15:10 -17.77332 177.42799 814 ft 158 kts 219°
2026-05-07 15:10 -17.77644 177.42512 1112 ft 154 kts 220°
2026-05-07 15:11 -17.78012 177.42165 1311 ft 161 kts 219°
2026-05-07 15:11 -17.78400 177.41811 1394 ft 169 kts 216°
2026-05-07 15:11 -17.78649 177.41598 1431 ft 174 kts 215°
2026-05-07 15:12 -17.78825 177.41452 1453 ft 178 kts 215°
2026-05-07 15:12 -17.79196 177.41153 1517 ft 186 kts 214°
2026-05-07 15:12 -17.79583 177.40850 1597 ft 194 kts 213°
2026-05-07 15:13 -17.79862 177.40636 1644 ft 199 kts 212°